STARLINK-36646, 67823

Orbit data source: Space-Track

STARLINK-36646, 67823 is a payload satellite owned by SpaceX/Seattle (US) in LEO that was launched on Mon, 16 Feb 2026 UTC via an FALCON 9 launch vehicle from the Air Force Eastern Test Range (AFETR). Payload-class satellites include a variety of spacecraft equipped with specific instruments for various scientific and technological missions. These include communications satellites like Starlink; space stations such as the ISS; scientific satellites like the Hubble; Earth observation satellites from companies like Planet Labs, Umbra, and HawkEye 360; GPS; miniature CubeSats for education and research; and military/defense satellites.

Loading next visibility...
Identifier
67823, 2026-033C
Orbit
LEO
Country
Flag of USUS
Related business
Manufacturer
SpaceX/Seattle
Mission
Operational Commercial Communications
Bus & Motor
STARLINK V2MO, Unknown motor
Mass
575 kg wet, ~530 kg dry
Launch date (UTC)
2026-02-16 (4 months ago)
Launch vehicle
FALCON 9
Launch site
Air Force Eastern Test Range (AFETR)
Object type
Payload
Rocket body
Debris
Shape & HBR
Box + 2 Pan, 17.7 m
Radar Cross Section
36.964 m², Large (>1 m²)

Expand to show TLE details & history
Last TLE update: 15 hours ago

TLE from 15 hours ago
0 STARLINK-36646
1 67823U 26033C   26171.34455269  .00019588  00000-0  71949-3 0  9999
2 67823  43.0005  47.3231 0001190 268.6550  91.4165 15.27577991 20374
Epoch: 2026-06-20T08:16Z
TLE epoch observation values (Epoch: 2026-06-20T08:16:09.352Z)
Latitude
-0.00004°
Longitude
14.72357°
Altitude
482.851 km
Speed
7.626 km/s
True Right ascension
03h 09m 17s
True Declination
0° 00' 00"
Sunlit
Object was in daylight at epoch
Visualization orbit readout
Latitude
Unknown
Longitude
Unknown
Altitude
Unknown
Speed
Unknown
Apparent Right ascension
Unknown
Apparent Declination
Unknown
Sunlit
N/A
Visualization observer readout
Local Sidereal Time
10:18:59
Azimuth
Unknown
Elevation
Unknown
Doppler factor
Unknown
Orbital elements
Apogee altitude
485.817 km
Perigee altitude
484.183 km
Semi-major axis
6,863.137 km
Eccentricity
0.00012
Inclination
43.0005°
RAAN
47.3231°
Arg. of periapsis
268.655°
True anomaly
91.43013°
Mean anomaly
91.4165°
Eccentric anomaly
91.42332°
Mean motion
3.81733 °/min
Orbital period
94.31 mins
BSTAR
0.00071949
Loading maneuver chart data...
Computing Atmospheric mass density...
Loading historical data...
Loading historical data...
Loading historical data...
Loading historical data...
Loading historical data...
Loading historical data...
Loading historical data...

Documentation

Showing up to 5 results
|